Regional Weather Roundup
Issued by NWS Grand Forks, ND

Home | Current Version | Previous Version | Graphics & Text | Print | Product List | Glossary On
Versions: 1 2 3 4 5 6 7 8 9 10 11 12 13 14 15 16 17 18 19 20 21 22 23 24 25 26 27 28 29 30 31 32 33 34 35 36 37 38 39 40 41 42 43 44 45 46 47 48 49 50
000
ASUS43 KFGF 261031
RWRFGF
PRAIRIE TO PINES  WEATHER ROUNDUP
NATIONAL WEATHER SERVICE EASTERN NORTH DAKOTA/GRAND FORKS ND
500 AM CDT FRI MAY 26 2017

 **SATELLITE DATA USED TO AUGMENT SKY COVER AT AUTOMATED STATIONS**
 *****  WEATHER ACROSS EASTERN NORTH DAKOTA  *****

CITY           SKY/WX    TMP DP  RH WIND       PRES   REMARKS
GRAND FORKS    FAIR      46  44  93 SW7       29.58R
GRAND FRKS AFB FAIR      48  44  85 W8        29.59R
DEVILS LAKE    FAIR      50  45  83 SW8       29.60S
FARGO          FAIR      49  48  97 SW6       29.62R
WAHPETON ARPT  FAIR      48  45  87 W8        29.64R
$$

 ***** WEATHER ACROSS CENTRAL AND WESTERN NORTH DAKOTA  *****

CITY           SKY/WX    TMP DP  RH WIND       PRES   REMARKS
BISMARCK       FAIR      49  42  77 W9        29.70R
MINOT          FAIR      50  43  77 W16       29.60S
JAMESTOWN      FAIR      50  44  80 W8        29.64R
MINOT AFB      FAIR      48  44  85 W14       29.59S
GARRISON         N/A     47  41  80 W14       29.64S
WILLISTON      CLOUDY    51  41  68 W15       29.69R
DICKINSON      CLOUDY    48  36  63 W17       29.71R
HETTINGER      FAIR      45  37  73 W18       29.77R
$$

 *****  OTHER AIRPORT OBSERVATIONS IN OUR AREA  *****

CITY           SKY/WX    TMP DP  RH WIND       PRES   REMARKS
WALHALLA       NOT AVBL
GRAFTON AIRPOR FAIR      48  48 100 SW8       29.60R
VALLEY CITY AR FAIR      48  48 100 W12       29.65S
CANDO          NOT AVBL
CAVALIER APRT  FAIR      46  43  87 W5        29.56S
GWINNER        SUNNY     50  46  87 MISG      29.66S
SHEYENNE NWR     N/A     47  45  91 W6        29.95S
ROLLA          FAIR      45  45 100 SW12      29.57S
 ***** THE ABOVE OBSERVATIONS ARE NON NWS ARE NOT QUALITY
       CONTROLLED AND MAY MIS-REPORT RAIN FOR SNOW...
$$

  *****  WEATHER ACROSS NORTHERN MINNESOTA  *****

CITY           SKY/WX    TMP DP  RH WIND       PRES   REMARKS
FLAG ISLAND    CLOUDY    57  52  82 SE15      29.57S
WARROAD        FAIR      55  52  88 S5        29.59S
ROSEAU         FAIR      54  48  82 S8        29.58S
HALLOCK        FAIR      46  45  93 S7        29.57S
THF RVR FALLS  FAIR      52  50  93 S7        29.60S
BAUDETTE       CLOUDY    57  51  80 SE10      29.61S
WASKISH        FAIR      55  52  88 S6        29.63R
CROOKSTON      FAIR      46  46 100 S5        29.60S
STEPHEN NDAWN    N/A     48  46  93 SW3         N/A
GREENBUSH NDAW   N/A     52  48  87 S3          N/A
$$
  *****  WEATHER ACROSS CENTRAL AND WEST MINNESOTA  *****

CITY           SKY/WX    TMP DP  RH WIND       PRES   REMARKS
FOSSTON        FAIR      50  48  93 S8        29.62R
BEMIDJI        FAIR      52  50  93 SE5       29.63S
PARK RAPIDS    FAIR      55  49  80 SE8       29.63S
ELBOW LAKE     FAIR      50  49  99 S7        29.64S
WADENA         FAIR      52  50  93 S3        29.64S
DETROIT LAKES  FAIR      52  50  93 S3        29.64R
MOORHEAD       FAIR      52  50  93 S5        29.63S
FERGUS FALLS   FAIR      52  52 100 S5        29.63S
MORRIS MN      FAIR      50  50 100 SE5       29.64S FOG
STAPLES        FAIR      54  50  87 SE5       29.64F
$$
  *****  WEATHER ELSEWHERE ACROSS MINNESOTA  *****

CITY           SKY/WX    TMP DP  RH WIND       PRES   REMARKS
DULUTH         CLOUDY    49  47  93 E7        29.73F
INTRNTL FALLS  CLOUDY    53  50  89 SE9       29.65F
ELY            DRIZZLE   52  48  87 SE6       29.73F
CLOQUET        CLOUDY    46  45  93 E5        29.72F
WHEATON        FAIR      54  48  82 W7        29.67R
BRAINERD       FAIR      55  53  93 SE5       29.66F
HIBBING        CLOUDY    49  49 100 SE7       29.70F
ALEXANDRIA     FAIR      53  50  89 S3        29.66S
SAINT CLOUD    CLOUDY    58  54  86 SE7       29.66F
MINNEAPOLIS    CLOUDY    61  52  72 SE8       29.69F
$$

  *****  WEATHER ACROSS SOUTH DAKOTA  *****

CITY           SKY/WX    TMP DP  RH WIND       PRES   REMARKS
SIOUX FALLS    CLOUDY    52  50  93 CALM      29.68R
BROOKINGS      FAIR      49  48  97 W5        29.69R
WATERTOWN      FAIR      52  47  83 W10       29.68S
HURON          FAIR      49  46  90 W7        29.73R
SISSETON         N/A     56  48  74 NW12      29.65R
ABERDEEN       FAIR      51  43  74 W12       29.70R
MITCHELL       FAIR      54  47  77 NW12      29.73R
PIERRE         FAIR      51  41  68 NW14      29.77R
MOBRIDGE       FAIR      48  41  76 NW9       29.72R
RAPID CITY     FAIR      38  32  79 CALM      29.88R
$$

  *****  SOME WEATHER IN NEARBY STATES *****

CITY           SKY/WX    TMP DP  RH WIND       PRES   REMARKS
GLASGOW MT     CLOUDY    43  36  76 W13       29.78R
GREAT FALLS MT FAIR      38  34  85 W7        29.94R
CHEYENNE WY    FAIR      38  33  82 NW8       29.97S
SCOTTSBLUFF NE FAIR      42  35  76 NW6       29.93S
OMAHA NE       CLOUDY    65  55  70 SE6       29.63F
DES MOINES IA  CLOUDY    61  53  75 E8        29.67F
DAVENPORT IA   FAIR      57  54  89 E8        29.79S
CHICAGO IL     CLOUDY    54  50  86 CALM      29.82R
EAU CLAIRE WI  CLOUDY    59  54  83 SE7       29.75F
LA CROSSE WI   FAIR      59  57  93 SE8       29.75F
$$

  *****  SOME NATIONAL WEATHER *****

CITY           SKY/WX    TMP DP  RH WIND       PRES   REMARKS
LA GUARDIA NY  LGT RAIN  57  55  93 NW7       29.52R FOG
RALEIGH NC     FAIR      60  54  80 W7        29.86R
ATLANTA GA     FAIR      57  51  80 W5        30.00R
NEW ORLEANS LA FAIR      70  64  81 S6        29.94R
OKLAHOMA CITY  FAIR      73  61  65 SW15      29.56R
ALBUQUERQUE NM FAIR      58  10  15 E10       29.98R
SALT LAKE CITY FAIR      57  37  47 S9        29.68F
LOS ANGELES CA CLOUDY    61  54  77 W7        29.93S
BOISE ID       MOCLDY    49  42  77 SW3       29.82R
SEATTLE WA     FAIR      57  48  72 NE6       29.92R
$$

*** WEATHER ACROSS MANITOBA...SASKATCHEWAN AND ONTARIO ***
                ***ONTARIO***

CITY           SKY/WX    TMP DP  RH WIND       PRES   REMARKS
GERALDTON      PTCLDY    43  41  93 E3        29.80S
THUNDER BAY    MOCLDY    43  41  93 E2        29.79S
SIOUX LOOKOUT  CLOUDY    55  46  71 SE6       29.68F
TORONTO        DRIZZLE   55  54  94 N10       29.60S FOG
BIG TROUT LK   CLEAR     48  41  76 SE5       29.69F
PICKLE LAKE    NOT AVBL
DRYDEN         LGT RAIN  54  50  87 S9        29.67S
KENORA         CLOUDY    55  50  82 S14G22    29.60S
$$
                *** MANITOBA***

CITY           SKY/WX    TMP DP  RH WIND       PRES   REMARKS
BRANDON        PTCLDY    46  41  81 SW13      29.51R
DAUPHIN        CLOUDY    52  45  76 SW13G18   29.42S
ISLAND LAKE    NOT AVBL
PILOT MOUND      N/A     41  39  93 S7          N/A
THE PAS        CLOUDY    50  48  93 E6        29.36S
THOMPSON       CLOUDY    54  43  66 NE8       29.50F
WINNIPEG       PTCLDY    52  45  76 SW7       29.53R
LYNN LAKE      CLOUDY    48  46  93 NE2       29.53F
CHURCHILL      MOCLDY    36  32  87 E13       29.68R
GILLAM         CLOUDY    55  34  44 E5        29.56F
$$
                ***SASKATCHEWAN***

CITY           SKY/WX    TMP DP  RH WIND       PRES   REMARKS
ESTEVAN        CLOUDY    48  45  87 W16G24    29.60R
KINDERSLEY     PTCLDY    39  37  93 W6        29.72S
LLOYDMINSTER   CLEAR     45  39  81 NW7       29.71S
PRINCE ALBERT  LGT RAIN  48  46  93 NW15G22   29.52R
REGINA         CLOUDY    46  45  93 NW21G28   29.59R
YORKTON          N/A     50  48  93 W14G20    29.44R
N. BATTLEFORD  MOCLDY    43  43 100 NW10      29.69S
LA RONGE       LGT RAIN  50  48  93 NW9       29.51S
SASKATOON      MOCLDY    45  43  93 W17G24    29.61R
SWIFT CURRENT  PTCLDY    45  41  87 W17G23    29.71R
$$
NOTE: THESE ARE AUTOMATED STATIONS WITH LIMITED QUALITY CONTROL
      "FAIR" INDICATES FEW OR NO CLOUDS BELOW 12,000 FEET WITH NO
      SIGNIFICANT WEATHER AND/OR OBSTRUCTIONS TO VISIBILITY.
      SKY/WX - SKY CONDITION AND SIGNIFICANT WEATHER.
      TMP - AIR TEMPERATURE.    DP   - DEWPOINT TEMPERATURE.
      RH  - RELATIVE HUMIDITY.  PRES - PRESSURE.
      HX  - HEAT INDEX.         WCI  - WIND CHILL INDEX.
$




USA.gov is the U.S. government's official web portal to all federal, state and local government web resources and services.